Time,TemperatureF,DewpointF,PressureIn,WindDirection,WindDirectionDegrees,WindSpeedMPH,WindSpeedGustMPH,Humidity,HourlyPrecipIn,Conditions,Clouds,dailyrainin,SoftwareType,DateUTC
2013-10-02 00:03:00,48.9,37.3,29.95,NNE,28,1.0,2.0,64,0.00,,,0.00,Wunderground v.1.15,2013-10-02 05:03:00,
2013-10-02 00:08:00,48.3,37.1,29.95,NNE,28,2.0,2.0,65,0.00,,,0.00,Wunderground v.1.15,2013-10-02 05:08:00,
2013-10-02 00:14:00,48.6,37.4,29.95,NNE,28,2.0,2.0,65,0.00,,,0.00,Wunderground v.1.15,2013-10-02 05:14:00,
2013-10-02 00:19:00,48.8,37.9,29.95,NNE,28,1.0,2.0,66,0.00,,,0.00,Wunderground v.1.15,2013-10-02 05:19:00,
2013-10-02 00:24:00,49.2,38.7,29.96,NNE,28,1.0,2.0,67,0.00,,,0.00,Wunderground v.1.15,2013-10-02 05:24:00,
2013-10-02 00:30:00,49.6,39.5,29.96,NNE,28,1.0,1.0,68,0.00,,,0.00,Wunderground v.1.15,2013-10-02 05:30:00,
2013-10-02 00:36:00,50.1,41.1,29.96,NNE,29,3.0,3.0,71,0.00,,,0.00,Wunderground v.1.15,2013-10-02 05:36:00,
2013-10-02 00:41:00,50.5,41.4,29.96,NNE,32,2.0,3.0,71,0.00,,,0.00,Wunderground v.1.15,2013-10-02 05:41:00,
2013-10-02 00:47:00,50.4,40.6,29.95,NNE,30,2.0,2.0,69,0.00,,,0.00,Wunderground v.1.15,2013-10-02 05:47:00,
2013-10-02 00:52:00,49.8,40.4,29.96,NNE,30,1.0,2.0,70,0.00,,,0.00,Wunderground v.1.15,2013-10-02 05:52:00,
2013-10-02 00:58:00,49.3,40.3,29.96,NNE,30,2.0,2.0,71,0.00,,,0.00,Wunderground v.1.15,2013-10-02 05:58:00,
2013-10-02 01:04:00,49.7,40.3,29.95,NNE,30,3.0,3.0,70,0.00,,,0.00,Wunderground v.1.15,2013-10-02 06:04:00,
2013-10-02 01:10:00,50.0,40.2,29.96,NNE,30,2.0,2.0,69,0.00,,,0.00,Wunderground v.1.15,2013-10-02 06:10:00,
2013-10-02 01:15:00,50.1,39.9,29.96,NNE,30,2.0,2.0,68,0.00,,,0.00,Wunderground v.1.15,2013-10-02 06:15:00,
2013-10-02 01:21:00,50.2,39.7,29.96,NNE,30,1.0,2.0,67,0.00,,,0.00,Wunderground v.1.15,2013-10-02 06:21:00,
2013-10-02 01:26:00,48.6,38.9,29.96,NNE,30,2.0,2.0,69,0.00,,,0.00,Wunderground v.1.15,2013-10-02 06:26:00,
2013-10-02 01:32:00,47.4,39.9,29.96,NNE,22,3.0,3.0,75,0.00,,,0.00,Wunderground v.1.15,2013-10-02 06:32:00,
2013-10-02 01:38:00,47.5,41.0,29.97,NNE,17,3.0,3.0,78,0.00,,,0.00,Wunderground v.1.15,2013-10-02 06:38:00,
2013-10-02 01:44:00,47.7,41.5,29.97,NNE,17,3.0,3.0,79,0.00,,,0.00,Wunderground v.1.15,2013-10-02 06:44:00,
2013-10-02 01:49:00,47.7,41.2,29.97,NNE,17,3.0,3.0,78,0.00,,,0.00,Wunderground v.1.15,2013-10-02 06:49:00,
2013-10-02 01:55:00,47.8,40.9,29.97,NNE,17,2.0,3.0,77,0.00,,,0.00,Wunderground v.1.15,2013-10-02 06:55:00,
2013-10-02 02:01:00,47.7,40.2,29.97,NNE,17,1.0,3.0,75,0.00,,,0.00,Wunderground v.1.15,2013-10-02 07:01:00,
2013-10-02 02:07:00,48.3,39.7,29.97,NNE,17,1.0,1.0,72,0.00,,,0.00,Wunderground v.1.15,2013-10-02 07:07:00,
2013-10-02 02:12:00,49.0,39.6,29.97,NE,45,2.0,3.0,70,0.00,,,0.00,Wunderground v.1.15,2013-10-02 07:12:00,
2013-10-02 02:17:00,49.4,40.0,29.97,NE,45,2.0,3.0,70,0.00,,,0.00,Wunderground v.1.15,2013-10-02 07:17:00,
2013-10-02 02:22:00,49.6,40.2,29.97,NE,42,2.0,3.0,70,0.00,,,0.00,Wunderground v.1.15,2013-10-02 07:22:00,
2013-10-02 02:28:00,49.7,40.3,29.97,NE,49,3.0,3.0,70,0.00,,,0.00,Wunderground v.1.15,2013-10-02 07:28:00,
2013-10-02 02:33:00,49.5,40.1,29.97,NE,52,2.0,3.0,70,0.00,,,0.00,Wunderground v.1.15,2013-10-02 07:33:00,
2013-10-02 02:38:00,49.5,40.1,29.97,NE,49,4.0,4.0,70,0.00,,,0.00,Wunderground v.1.15,2013-10-02 07:38:00,
2013-10-02 02:43:00,49.3,40.3,29.97,NE,49,3.0,4.0,71,0.00,,,0.00,Wunderground v.1.15,2013-10-02 07:43:00,
2013-10-02 02:48:00,49.1,39.7,29.97,NE,53,4.0,4.0,70,0.00,,,0.00,Wunderground v.1.15,2013-10-02 07:48:00,
2013-10-02 02:53:00,49.1,39.4,29.97,NE,54,2.0,4.0,69,0.00,,,0.00,Wunderground v.1.15,2013-10-02 07:53:00,
2013-10-02 02:58:00,49.2,37.9,29.97,NE,46,3.0,4.0,65,0.00,,,0.00,Wunderground v.1.15,2013-10-02 07:58:00,
2013-10-02 03:03:00,49.7,37.2,29.97,ENE,71,1.0,4.0,62,0.00,,,0.00,Wunderground v.1.15,2013-10-02 08:03:00,
2013-10-02 03:08:00,50.3,36.5,29.97,ENE,63,2.0,2.0,59,0.00,,,0.00,Wunderground v.1.15,2013-10-02 08:08:00,
2013-10-02 03:13:00,50.6,36.4,29.97,NE,44,3.0,4.0,58,0.00,,,0.00,Wunderground v.1.15,2013-10-02 08:13:00,
2013-10-02 03:18:00,50.6,36.8,29.97,NE,42,2.0,4.0,59,0.00,,,0.00,Wunderground v.1.15,2013-10-02 08:18:00,
2013-10-02 03:23:00,49.9,37.0,29.97,NE,41,3.0,4.0,61,0.00,,,0.00,Wunderground v.1.15,2013-10-02 08:23:00,
2013-10-02 03:28:00,49.3,36.4,29.97,NE,43,3.0,3.0,61,0.00,,,0.00,Wunderground v.1.15,2013-10-02 08:28:00,
2013-10-02 03:33:00,49.0,36.5,29.97,NE,40,4.0,5.0,62,0.00,,,0.00,Wunderground v.1.15,2013-10-02 08:33:00,
2013-10-02 03:38:00,48.6,36.6,29.97,NE,46,3.0,4.0,63,0.00,,,0.00,Wunderground v.1.15,2013-10-02 08:38:00,
2013-10-02 03:43:00,48.3,35.9,29.97,NE,44,3.0,4.0,62,0.00,,,0.00,Wunderground v.1.15,2013-10-02 08:43:00,
2013-10-02 03:48:00,48.2,35.8,29.97,NE,41,3.0,4.0,62,0.00,,,0.00,Wunderground v.1.15,2013-10-02 08:48:00,
2013-10-02 03:53:00,48.1,35.7,29.97,NE,51,3.0,4.0,62,0.00,,,0.00,Wunderground v.1.15,2013-10-02 08:53:00,
2013-10-02 03:58:00,48.0,35.6,29.98,NE,49,3.0,3.0,62,0.00,,,0.00,Wunderground v.1.15,2013-10-02 08:58:00,
2013-10-02 04:03:00,47.9,35.1,29.97,NE,49,3.0,3.0,61,0.00,,,0.00,Wunderground v.1.15,2013-10-02 09:03:00,
2013-10-02 04:08:00,47.9,35.1,29.97,NE,49,2.0,3.0,61,0.00,,,0.00,Wunderground v.1.15,2013-10-02 09:08:00,
2013-10-02 04:13:00,47.8,35.0,29.97,NE,49,3.0,3.0,61,0.00,,,0.00,Wunderground v.1.15,2013-10-02 09:13:00,
2013-10-02 04:18:00,47.8,34.6,29.97,NE,49,3.0,4.0,60,0.00,,,0.00,Wunderground v.1.15,2013-10-02 09:18:00,
2013-10-02 04:23:00,47.9,34.7,29.97,NE,49,3.0,4.0,60,0.00,,,0.00,Wunderground v.1.15,2013-10-02 09:23:00,
2013-10-02 04:28:00,47.9,34.7,29.97,NE,48,3.0,4.0,60,0.00,,,0.00,Wunderground v.1.15,2013-10-02 09:28:00,
2013-10-02 04:33:00,47.9,35.1,29.97,NE,42,4.0,6.0,61,0.00,,,0.00,Wunderground v.1.15,2013-10-02 09:33:00,
2013-10-02 04:38:00,47.6,35.2,29.97,NE,40,4.0,4.0,62,0.00,,,0.00,Wunderground v.1.15,2013-10-02 09:38:00,
2013-10-02 04:43:00,47.4,35.0,29.97,NE,38,3.0,5.0,62,0.00,,,0.00,Wunderground v.1.15,2013-10-02 09:43:00,
2013-10-02 04:48:00,47.3,34.5,29.97,NE,42,3.0,6.0,61,0.00,,,0.00,Wunderground v.1.15,2013-10-02 09:48:00,
2013-10-02 04:53:00,47.3,34.5,29.97,NE,37,4.0,6.0,61,0.00,,,0.00,Wunderground v.1.15,2013-10-02 09:53:00,
2013-10-02 04:58:00,47.3,34.5,29.97,NE,45,3.0,5.0,61,0.00,,,0.00,Wunderground v.1.15,2013-10-02 09:58:00,
2013-10-02 05:03:00,47.4,35.0,29.97,NE,51,3.0,6.0,62,0.00,,,0.00,Wunderground v.1.15,2013-10-02 10:03:00,
2013-10-02 05:09:00,47.4,34.6,29.97,NE,51,3.0,5.0,61,0.00,,,0.00,Wunderground v.1.15,2013-10-02 10:09:00,
2013-10-02 05:14:00,47.7,34.5,29.97,ENE,64,1.0,5.0,60,0.00,,,0.00,Wunderground v.1.15,2013-10-02 10:14:00,
2013-10-02 05:19:00,48.3,34.6,29.97,NE,44,2.0,6.0,59,0.00,,,0.00,Wunderground v.1.15,2013-10-02 10:19:00,
2013-10-02 05:24:00,48.7,34.1,29.97,NE,43,2.0,6.0,57,0.00,,,0.00,Wunderground v.1.15,2013-10-02 10:24:00,
2013-10-02 05:29:00,49.1,34.5,29.97,NE,40,3.0,5.0,57,0.00,,,0.00,Wunderground v.1.15,2013-10-02 10:29:00,
2013-10-02 05:34:00,49.2,35.0,29.97,NE,43,3.0,5.0,58,0.00,,,0.00,Wunderground v.1.15,2013-10-02 10:34:00,
2013-10-02 05:39:00,49.1,34.5,29.97,NE,43,3.0,4.0,57,0.00,,,0.00,Wunderground v.1.15,2013-10-02 10:39:00,
2013-10-02 05:44:00,49.5,34.4,29.97,NE,53,1.0,4.0,56,0.00,,,0.00,Wunderground v.1.15,2013-10-02 10:44:00,
2013-10-02 05:49:00,50.5,34.0,29.97,NE,47,0.0,3.0,53,0.00,,,0.00,Wunderground v.1.15,2013-10-02 10:49:00,
2013-10-02 05:54:00,51.5,34.0,29.97,NE,34,1.0,3.0,51,0.00,,,0.00,Wunderground v.1.15,2013-10-02 10:54:00,
2013-10-02 05:59:00,52.0,33.9,29.97,NE,39,1.0,3.0,50,0.00,,,0.00,Wunderground v.1.15,2013-10-02 10:59:00,
2013-10-02 06:04:00,52.1,34.0,29.97,NE,56,0.0,3.0,50,0.00,,,0.00,Wunderground v.1.15,2013-10-02 11:04:00,
2013-10-02 06:09:00,52.1,33.5,29.98,NE,53,0.0,2.0,49,0.00,,,0.00,Wunderground v.1.15,2013-10-02 11:09:00,
2013-10-02 06:14:00,52.2,33.6,29.98,WNW,285,1.0,2.0,49,0.00,,,0.00,Wunderground v.1.15,2013-10-02 11:14:00,
2013-10-02 06:19:00,52.3,33.7,29.97,WSW,253,1.0,2.0,49,0.00,,,0.00,Wunderground v.1.15,2013-10-02 11:19:00,
2013-10-02 06:24:00,52.5,33.9,29.98,ESE,120,0.0,2.0,49,0.00,,,0.00,Wunderground v.1.15,2013-10-02 11:24:00,
2013-10-02 06:29:00,52.5,33.4,29.98,North,9,1.0,2.0,48,0.00,,,0.00,Wunderground v.1.15,2013-10-02 11:29:00,
2013-10-02 06:34:00,52.6,33.5,29.98,West,277,0.0,3.0,48,0.00,,,0.00,Wunderground v.1.15,2013-10-02 11:34:00,
2013-10-02 06:39:00,52.5,33.9,29.98,ENE,65,0.0,3.0,49,0.00,,,0.00,Wunderground v.1.15,2013-10-02 11:39:00,
2013-10-02 06:44:00,52.4,33.8,29.98,NNW,333,2.0,3.0,49,0.00,,,0.00,Wunderground v.1.15,2013-10-02 11:44:00,
2013-10-02 06:49:00,52.4,33.3,29.97,SSW,210,0.0,2.0,48,0.00,,,0.00,Wunderground v.1.15,2013-10-02 11:49:00,
2013-10-02 07:06:00,52.4,33.8,29.98,SSE,167,1.0,1.0,49,0.00,,,0.00,Wunderground v.1.15,2013-10-02 12:06:00,
2013-10-02 07:12:00,52.4,34.3,29.98,SE,128,1.0,1.0,50,0.00,,,0.00,Wunderground v.1.15,2013-10-02 12:12:00,
2013-10-02 07:17:00,52.3,33.7,29.98,South,182,2.0,2.0,49,0.00,,,0.00,Wunderground v.1.15,2013-10-02 12:17:00,
2013-10-02 07:22:00,52.6,34.0,29.97,NNE,23,1.0,2.0,49,0.00,,,0.00,Wunderground v.1.15,2013-10-02 12:22:00,
2013-10-02 07:27:00,52.9,34.2,29.97,South,177,0.0,1.0,49,0.00,,,0.00,Wunderground v.1.15,2013-10-02 12:27:00,
2013-10-02 07:32:00,53.3,34.6,29.98,South,184,2.0,3.0,49,0.00,,,0.00,Wunderground v.1.15,2013-10-02 12:32:00,
2013-10-02 07:38:00,53.4,34.7,29.98,South,176,1.0,3.0,49,0.00,,,0.00,Wunderground v.1.15,2013-10-02 12:38:00,
2013-10-02 07:43:00,53.6,34.9,29.98,NNE,32,0.0,3.0,49,0.00,,,0.00,Wunderground v.1.15,2013-10-02 12:43:00,
2013-10-02 07:48:00,53.8,35.1,29.97,WSW,237,2.0,2.0,49,0.00,,,0.00,Wunderground v.1.15,2013-10-02 12:48:00,
2013-10-02 07:53:00,54.3,35.5,29.98,SSE,155,2.0,5.0,49,0.00,,,0.00,Wunderground v.1.15,2013-10-02 12:53:00,
2013-10-02 07:58:00,54.6,35.3,29.98,ENE,74,0.0,3.0,48,0.00,,,0.00,Wunderground v.1.15,2013-10-02 12:58:00,
2013-10-02 08:03:00,55.2,35.8,29.97,NW,314,1.0,4.0,48,0.00,,,0.00,Wunderground v.1.15,2013-10-02 13:03:00,
2013-10-02 08:08:00,55.8,35.9,29.97,West,269,3.0,4.0,47,0.00,,,0.00,Wunderground v.1.15,2013-10-02 13:08:00,
2013-10-02 08:13:00,56.3,35.8,29.97,SE,126,1.0,7.0,46,0.00,,,0.00,Wunderground v.1.15,2013-10-02 13:13:00,
2013-10-02 08:18:00,56.7,35.6,29.97,SSE,155,3.0,6.0,45,0.00,,,0.00,Wunderground v.1.15,2013-10-02 13:18:00,
2013-10-02 08:23:00,57.2,36.0,29.97,SSE,166,3.0,7.0,45,0.00,,,0.00,Wunderground v.1.15,2013-10-02 13:23:00,
2013-10-02 08:28:00,57.7,35.9,29.97,SSW,209,1.0,6.0,44,0.00,,,0.00,Wunderground v.1.15,2013-10-02 13:28:00,
2013-10-02 08:33:00,58.3,35.9,29.97,SE,126,5.0,9.0,43,0.00,,,0.00,Wunderground v.1.15,2013-10-02 13:33:00,
2013-10-02 08:38:00,59.0,36.5,29.97,SE,138,3.0,7.0,43,0.00,,,0.00,Wunderground v.1.15,2013-10-02 13:38:00,
2013-10-02 08:43:00,59.7,36.6,29.97,SE,135,4.0,8.0,42,0.00,,,0.00,Wunderground v.1.15,2013-10-02 13:43:00,
2013-10-02 08:48:00,60.3,36.5,29.97,SSE,155,1.0,5.0,41,0.00,,,0.00,Wunderground v.1.15,2013-10-02 13:48:00,
2013-10-02 08:53:00,61.0,36.5,29.97,South,186,2.0,8.0,40,0.00,,,0.00,Wunderground v.1.15,2013-10-02 13:53:00,
2013-10-02 08:58:00,62.0,36.7,29.97,ESE,105,10.0,10.0,39,0.00,,,0.00,Wunderground v.1.15,2013-10-02 13:58:00,
2013-10-02 09:03:00,63.0,36.3,29.97,SSE,147,8.0,13.0,37,0.00,,,0.00,Wunderground v.1.15,2013-10-02 14:03:00,
2013-10-02 09:08:00,63.5,35.3,29.97,SSE,163,4.0,13.0,35,0.00,,,0.00,Wunderground v.1.15,2013-10-02 14:08:00,
2013-10-02 09:13:00,63.8,35.6,29.96,SE,135,4.0,13.0,35,0.00,,,0.00,Wunderground v.1.15,2013-10-02 14:13:00,
2013-10-02 09:18:00,64.3,34.6,29.97,SE,138,14.0,15.0,33,0.00,,,0.00,Wunderground v.1.15,2013-10-02 14:18:00,
2013-10-02 09:23:00,64.7,34.9,29.96,SE,135,5.0,20.0,33,0.00,,,0.00,Wunderground v.1.15,2013-10-02 14:23:00,
2013-10-02 09:28:00,65.0,35.2,29.96,SE,130,10.0,17.0,33,0.00,,,0.00,Wunderground v.1.15,2013-10-02 14:28:00,
2013-10-02 09:33:00,65.6,35.7,29.96,SSE,161,6.0,17.0,33,0.00,,,0.00,Wunderground v.1.15,2013-10-02 14:33:00,
2013-10-02 09:38:00,65.6,35.7,29.96,South,178,14.0,19.0,33,0.00,,,0.00,Wunderground v.1.15,2013-10-02 14:38:00,
2013-10-02 09:43:00,65.8,35.1,29.96,SE,137,9.0,21.0,32,0.00,,,0.00,Wunderground v.1.15,2013-10-02 14:43:00,
2013-10-02 09:48:00,66.5,35.7,29.96,SE,146,10.0,20.0,32,0.00,,,0.00,Wunderground v.1.15,2013-10-02 14:48:00,
2013-10-02 09:53:00,67.1,35.4,29.96,SE,135,4.0,20.0,31,0.00,,,0.00,Wunderground v.1.15,2013-10-02 14:53:00,
2013-10-02 09:58:00,67.7,35.1,29.96,SE,139,16.0,20.0,30,0.00,,,0.00,Wunderground v.1.15,2013-10-02 14:58:00,
2013-10-02 10:03:00,67.6,35.0,29.96,SSE,164,14.0,28.0,30,0.00,,,0.00,Wunderground v.1.15,2013-10-02 15:03:00,
2013-10-02 10:09:00,67.4,34.9,29.96,SE,138,19.0,26.0,30,0.00,,,0.00,Wunderground v.1.15,2013-10-02 15:09:00,
2013-10-02 10:14:00,67.1,35.4,29.96,ESE,111,17.0,26.0,31,0.00,,,0.00,Wunderground v.1.15,2013-10-02 15:14:00,
2013-10-02 10:19:00,67.0,35.3,29.96,ESE,118,11.0,18.0,31,0.00,,,0.00,Wunderground v.1.15,2013-10-02 15:19:00,
2013-10-02 10:24:00,67.6,35.9,29.97,SSE,159,9.0,25.0,31,0.00,,,0.00,Wunderground v.1.15,2013-10-02 15:24:00,
2013-10-02 10:29:00,68.3,35.6,29.97,SSE,155,16.0,20.0,30,0.00,,,0.00,Wunderground v.1.15,2013-10-02 15:29:00,
2013-10-02 10:33:00,67.3,34.8,29.96,SSE,165,13.0,20.0,30,0.00,,,0.00,Wunderground v.1.15,2013-10-02 15:33:00,
2013-10-02 10:38:00,67.1,36.2,29.96,SE,146,16.0,21.0,32,0.00,,,0.00,Wunderground v.1.15,2013-10-02 15:38:00,
2013-10-02 10:43:00,67.8,36.0,29.97,SSE,148,10.0,21.0,31,0.00,,,0.00,Wunderground v.1.15,2013-10-02 15:43:00,
2013-10-02 10:48:00,68.4,35.7,29.96,ESE,111,9.0,18.0,30,0.00,,,0.00,Wunderground v.1.15,2013-10-02 15:48:00,
2013-10-02 10:53:00,68.4,36.6,29.96,SSE,155,11.0,18.0,31,0.00,,,0.00,Wunderground v.1.15,2013-10-02 15:53:00,
2013-10-02 10:58:00,68.9,36.2,29.96,SE,142,12.0,19.0,30,0.00,,,0.00,Wunderground v.1.15,2013-10-02 15:58:00,
2013-10-02 11:03:00,69.7,35.1,29.95,SE,136,19.0,25.0,28,0.00,,,0.00,Wunderground v.1.15,2013-10-02 16:03:00,
2013-10-02 11:08:00,69.7,35.1,29.95,SE,142,11.0,20.0,28,0.00,,,0.00,Wunderground v.1.15,2013-10-02 16:08:00,
2013-10-02 11:13:00,69.7,35.1,29.95,SE,132,14.0,23.0,28,0.00,,,0.00,Wunderground v.1.15,2013-10-02 16:13:00,
2013-10-02 11:18:00,70.1,35.5,29.95,SE,142,11.0,20.0,28,0.00,,,0.00,Wunderground v.1.15,2013-10-02 16:18:00,
2013-10-02 11:23:00,70.7,36.0,29.95,SSE,151,16.0,26.0,28,0.00,,,0.00,Wunderground v.1.15,2013-10-02 16:23:00,
2013-10-02 11:28:00,70.6,35.9,29.95,ESE,104,17.0,21.0,28,0.00,,,0.00,Wunderground v.1.15,2013-10-02 16:28:00,
2013-10-02 11:33:00,71.0,36.2,29.95,SSE,148,17.0,24.0,28,0.00,,,0.00,Wunderground v.1.15,2013-10-02 16:33:00,
2013-10-02 11:38:00,72.0,36.2,29.94,SE,133,19.0,23.0,27,0.00,,,0.00,Wunderground v.1.15,2013-10-02 16:38:00,
2013-10-02 11:43:00,72.6,36.7,29.94,SSE,163,13.0,24.0,27,0.00,,,0.00,Wunderground v.1.15,2013-10-02 16:43:00,
2013-10-02 11:48:00,73.7,36.7,29.94,SSE,148,17.0,22.0,26,0.00,,,0.00,Wunderground v.1.15,2013-10-02 16:48:00,
2013-10-02 11:53:00,72.7,36.8,29.94,SSE,151,14.0,25.0,27,0.00,,,0.00,Wunderground v.1.15,2013-10-02 16:53:00,
2013-10-02 11:58:00,72.4,36.5,29.94,SSE,166,10.0,21.0,27,0.00,,,0.00,Wunderground v.1.15,2013-10-02 16:58:00,
2013-10-02 12:03:00,72.4,37.4,29.93,South,176,11.0,21.0,28,0.00,,,0.00,Wunderground v.1.15,2013-10-02 17:03:00,
2013-10-02 12:08:00,72.4,37.4,29.93,SSE,150,11.0,24.0,28,0.00,,,0.00,Wunderground v.1.15,2013-10-02 17:08:00,
2013-10-02 12:13:00,72.3,37.4,29.93,SE,134,13.0,24.0,28,0.00,,,0.00,Wunderground v.1.15,2013-10-02 17:13:00,
2013-10-02 12:18:00,73.0,39.7,29.92,SE,139,14.0,23.0,30,0.00,,,0.00,Wunderground v.1.15,2013-10-02 17:18:00,
2013-10-02 12:23:00,73.9,39.6,29.92,SE,144,19.0,23.0,29,0.00,,,0.00,Wunderground v.1.15,2013-10-02 17:23:00,
2013-10-02 12:28:00,74.3,39.1,29.92,SE,134,10.0,18.0,28,0.00,,,0.00,Wunderground v.1.15,2013-10-02 17:28:00,
2013-10-02 12:33:00,74.6,42.8,29.92,SSE,149,12.0,20.0,32,0.00,,,0.00,Wunderground v.1.15,2013-10-02 17:33:00,
2013-10-02 12:38:00,75.2,42.5,29.91,SE,131,19.0,20.0,31,0.00,,,0.00,Wunderground v.1.15,2013-10-02 17:38:00,
2013-10-02 12:43:00,76.0,43.2,29.91,SE,139,10.0,20.0,31,0.00,,,0.00,Wunderground v.1.15,2013-10-02 17:43:00,
2013-10-02 12:48:00,76.5,44.4,29.91,SSE,167,11.0,21.0,32,0.00,,,0.00,Wunderground v.1.15,2013-10-02 17:48:00,
2013-10-02 12:54:00,76.3,45.1,29.90,SE,131,19.0,22.0,33,0.00,,,0.00,Wunderground v.1.15,2013-10-02 17:54:00,
2013-10-02 12:59:00,76.9,46.4,29.90,SSE,155,19.0,22.0,34,0.00,,,0.00,Wunderground v.1.15,2013-10-02 17:59:00,
2013-10-02 13:04:00,78.2,46.7,29.89,SE,138,15.0,22.0,33,0.00,,,0.00,Wunderground v.1.15,2013-10-02 18:04:00,
2013-10-02 13:09:00,78.2,47.5,29.89,SSE,161,15.0,23.0,34,0.00,,,0.00,Wunderground v.1.15,2013-10-02 18:09:00,
2013-10-02 13:27:00,79.1,48.3,29.87,ESE,120,14.0,14.0,34,0.00,,,0.00,Wunderground v.1.15,2013-10-02 18:27:00,
2013-10-02 13:41:00,80.3,52.4,29.86,SE,132,13.0,13.0,38,0.00,,,0.00,Wunderground v.1.15,2013-10-02 18:41:00,
2013-10-02 13:51:00,80.1,52.9,29.85,SSE,148,14.0,14.0,39,0.00,,,0.00,Wunderground v.1.15,2013-10-02 18:51:00,
2013-10-02 14:01:00,80.9,52.9,29.84,SSE,157,14.0,14.0,38,0.00,,,0.00,Wunderground v.1.15,2013-10-02 19:01:00,
2013-10-02 14:06:00,81.3,55.3,29.84,SE,146,16.0,16.0,41,0.00,,,0.00,Wunderground v.1.15,2013-10-02 19:06:00,
2013-10-02 14:11:00,81.3,55.3,29.83,SSE,163,24.0,26.0,41,0.00,,,0.00,Wunderground v.1.15,2013-10-02 19:11:00,
2013-10-02 14:16:00,81.6,54.9,29.83,SSE,147,13.0,16.0,40,0.00,,,0.00,Wunderground v.1.15,2013-10-02 19:16:00,
2013-10-02 14:21:00,81.6,56.9,29.83,SSE,163,11.0,24.0,43,0.00,,,0.00,Wunderground v.1.15,2013-10-02 19:21:00,
2013-10-02 14:26:00,80.7,56.1,29.83,SSE,166,21.0,21.0,43,0.00,,,0.00,Wunderground v.1.15,2013-10-02 19:26:00,
2013-10-02 14:31:00,80.7,56.1,29.82,SSE,155,18.0,23.0,43,0.00,,,0.00,Wunderground v.1.15,2013-10-02 19:31:00,
2013-10-02 14:36:00,81.8,57.1,29.82,South,169,21.0,21.0,43,0.00,,,0.00,Wunderground v.1.15,2013-10-02 19:36:00,
2013-10-02 14:41:00,81.3,57.3,29.81,SSE,160,16.0,25.0,44,0.00,,,0.00,Wunderground v.1.15,2013-10-02 19:41:00,
2013-10-02 14:46:00,80.2,57.5,29.81,South,181,18.0,18.0,46,0.00,,,0.00,Wunderground v.1.15,2013-10-02 19:46:00,
2013-10-02 14:51:00,80.2,56.9,29.81,SSE,155,12.0,22.0,45,0.00,,,0.00,Wunderground v.1.15,2013-10-02 19:51:00,
2013-10-02 14:56:00,79.4,57.4,29.81,SE,144,16.0,17.0,47,0.00,,,0.00,Wunderground v.1.15,2013-10-02 19:56:00,
2013-10-02 15:01:00,78.9,57.5,29.81,SSE,159,15.0,24.0,48,0.00,,,0.00,Wunderground v.1.15,2013-10-02 20:01:00,
2013-10-02 15:06:00,79.0,57.6,29.81,SSE,156,13.0,22.0,48,0.00,,,0.00,Wunderground v.1.15,2013-10-02 20:06:00,
2013-10-02 15:11:00,78.9,58.1,29.81,SSE,165,17.0,22.0,49,0.00,,,0.00,Wunderground v.1.15,2013-10-02 20:11:00,
2013-10-02 15:16:00,79.4,58.6,29.81,SSE,150,17.0,17.0,49,0.00,,,0.00,Wunderground v.1.15,2013-10-02 20:16:00,
2013-10-02 15:21:00,79.5,59.2,29.81,South,179,15.0,21.0,50,0.00,,,0.00,Wunderground v.1.15,2013-10-02 20:21:00,
2013-10-02 15:27:00,80.6,60.2,29.80,South,191,11.0,15.0,50,0.00,,,0.00,Wunderground v.1.15,2013-10-02 20:27:00,
2013-10-02 15:32:00,81.9,60.3,29.80,SSE,166,20.0,24.0,48,0.00,,,0.00,Wunderground v.1.15,2013-10-02 20:32:00,
2013-10-02 15:36:00,82.3,60.6,29.80,South,171,18.0,20.0,48,0.00,,,0.00,Wunderground v.1.15,2013-10-02 20:36:00,
2013-10-02 15:42:00,82.4,60.7,29.79,South,172,14.0,22.0,48,0.00,,,0.00,Wunderground v.1.15,2013-10-02 20:42:00,
2013-10-02 15:47:00,81.8,60.8,29.79,SSE,163,12.0,14.0,49,0.00,,,0.00,Wunderground v.1.15,2013-10-02 20:47:00,
2013-10-02 15:52:00,81.5,61.1,29.78,South,169,18.0,20.0,50,0.00,,,0.00,Wunderground v.1.15,2013-10-02 20:52:00,
2013-10-02 15:57:00,80.1,61.4,29.79,SSE,163,14.0,20.0,53,0.00,,,0.00,Wunderground v.1.15,2013-10-02 20:57:00,
2013-10-02 16:02:00,79.4,61.3,29.78,South,176,15.0,15.0,54,0.00,,,0.00,Wunderground v.1.15,2013-10-02 21:02:00,
2013-10-02 16:12:00,79.3,61.7,29.77,South,188,14.0,14.0,55,0.00,,,0.00,Wunderground v.1.15,2013-10-02 21:12:00,
2013-10-02 16:21:00,79.0,63.0,29.77,SSE,163,15.0,20.0,58,0.00,,,0.00,Wunderground v.1.15,2013-10-02 21:21:00,
2013-10-02 16:32:00,79.6,63.0,29.77,South,175,15.0,15.0,57,0.00,,,0.00,Wunderground v.1.15,2013-10-02 21:32:00,
2013-10-02 16:41:00,79.4,63.3,29.77,South,177,14.0,16.0,58,0.00,,,0.00,Wunderground v.1.15,2013-10-02 21:41:00,
2013-10-02 16:47:00,79.4,62.8,29.77,South,176,13.0,14.0,57,0.00,,,0.00,Wunderground v.1.15,2013-10-02 21:47:00,
2013-10-02 16:57:00,79.6,63.0,29.78,South,185,14.0,14.0,57,0.00,,,0.00,Wunderground v.1.15,2013-10-02 21:57:00,
2013-10-02 17:07:00,80.0,62.4,29.77,SSE,166,11.0,14.0,55,0.00,,,0.00,Wunderground v.1.15,2013-10-02 22:07:00,
2013-10-02 17:12:00,80.0,62.4,29.76,SSW,202,12.0,19.0,55,0.00,,,0.00,Wunderground v.1.15,2013-10-02 22:12:00,
2013-10-02 17:22:00,80.9,62.2,29.76,South,186,16.0,16.0,53,0.00,,,0.00,Wunderground v.1.15,2013-10-02 22:22:00,
2013-10-02 17:32:00,81.0,61.7,29.76,South,175,15.0,16.0,52,0.00,,,0.00,Wunderground v.1.15,2013-10-02 22:32:00,
2013-10-02 17:41:00,80.0,61.3,29.76,South,186,14.0,15.0,53,0.00,,,0.00,Wunderground v.1.15,2013-10-02 22:41:00,
2013-10-02 17:47:00,79.6,61.5,29.76,South,191,12.0,12.0,54,0.00,,,0.00,Wunderground v.1.15,2013-10-02 22:47:00,
2013-10-02 17:56:00,79.0,61.5,29.76,South,191,10.0,10.0,55,0.00,,,0.00,Wunderground v.1.15,2013-10-02 22:56:00,
2013-10-02 18:02:00,78.8,61.3,29.76,South,185,10.0,10.0,55,0.00,,,0.00,Wunderground v.1.15,2013-10-02 23:02:00,
2013-10-02 18:12:00,78.5,61.0,29.76,South,187,9.0,9.0,55,0.00,,,0.00,Wunderground v.1.15,2013-10-02 23:12:00,
2013-10-02 18:24:00,78.2,61.2,29.76,South,182,8.0,9.0,56,0.00,,,0.00,Wunderground v.1.15,2013-10-02 23:24:00,
2013-10-02 18:29:00,78.0,61.0,29.76,South,186,11.0,12.0,56,0.00,,,0.00,Wunderground v.1.15,2013-10-02 23:29:00,
2013-10-02 18:34:00,77.7,61.3,29.76,South,182,8.0,11.0,57,0.00,,,0.00,Wunderground v.1.15,2013-10-02 23:34:00,
2013-10-02 18:39:00,77.5,61.1,29.76,SSW,197,8.0,13.0,57,0.00,,,0.00,Wunderground v.1.15,2013-10-02 23:39:00,
2013-10-02 18:44:00,77.4,61.0,29.76,South,185,5.0,9.0,57,0.00,,,0.00,Wunderground v.1.15,2013-10-02 23:44:00,
2013-10-02 18:49:00,77.0,61.1,29.76,South,183,7.0,9.0,58,0.00,,,0.00,Wunderground v.1.15,2013-10-02 23:49:00,
2013-10-02 18:54:00,76.6,60.7,29.75,South,171,8.0,10.0,58,0.00,,,0.00,Wunderground v.1.15,2013-10-02 23:54:00,
2013-10-02 18:59:00,76.2,60.8,29.75,South,172,5.0,10.0,59,0.00,,,0.00,Wunderground v.1.15,2013-10-02 23:59:00,
2013-10-02 19:04:00,75.6,60.7,29.75,South,181,6.0,7.0,60,0.00,,,0.00,Wunderground v.1.15,2013-10-03 00:04:00,
2013-10-02 19:09:00,75.3,60.9,29.75,SSW,192,4.0,7.0,61,0.00,,,0.00,Wunderground v.1.15,2013-10-03 00:09:00,
2013-10-02 19:14:00,74.9,61.0,29.75,South,175,4.0,7.0,62,0.00,,,0.00,Wunderground v.1.15,2013-10-03 00:14:00,
2013-10-02 19:19:00,74.4,60.5,29.75,South,186,5.0,8.0,62,0.00,,,0.00,Wunderground v.1.15,2013-10-03 00:19:00,
2013-10-02 19:24:00,74.1,60.7,29.76,South,174,3.0,8.0,63,0.00,,,0.00,Wunderground v.1.15,2013-10-03 00:24:00,
2013-10-02 19:29:00,73.8,60.9,29.76,SSE,168,4.0,6.0,64,0.00,,,0.00,Wunderground v.1.15,2013-10-03 00:29:00,
2013-10-02 19:34:00,73.5,60.6,29.76,South,170,4.0,6.0,64,0.00,,,0.00,Wunderground v.1.15,2013-10-03 00:34:00,
2013-10-02 19:39:00,73.2,60.7,29.76,SSE,159,5.0,6.0,65,0.00,,,0.00,Wunderground v.1.15,2013-10-03 00:39:00,
2013-10-02 19:44:00,73.0,60.5,29.75,SE,143,4.0,6.0,65,0.00,,,0.00,Wunderground v.1.15,2013-10-03 00:44:00,
2013-10-02 19:49:00,72.8,60.3,29.75,SE,142,4.0,6.0,65,0.00,,,0.00,Wunderground v.1.15,2013-10-03 00:49:00,
2013-10-02 19:54:00,72.7,60.3,29.75,SE,134,3.0,7.0,65,0.00,,,0.00,Wunderground v.1.15,2013-10-03 00:54:00,
2013-10-02 19:59:00,72.4,60.4,29.76,SSE,161,2.0,6.0,66,0.00,,,0.00,Wunderground v.1.15,2013-10-03 00:59:00,
2013-10-02 20:04:00,72.0,60.4,29.76,SSE,161,5.0,6.0,67,0.00,,,0.00,Wunderground v.1.15,2013-10-03 01:04:00,
2013-10-02 20:09:00,71.8,60.7,29.76,SSE,164,5.0,5.0,68,0.00,,,0.00,Wunderground v.1.15,2013-10-03 01:09:00,
2013-10-02 20:14:00,71.6,60.5,29.76,SSE,159,5.0,6.0,68,0.00,,,0.00,Wunderground v.1.15,2013-10-03 01:14:00,
2013-10-02 20:19:00,71.4,60.7,29.76,South,178,4.0,7.0,69,0.00,,,0.00,Wunderground v.1.15,2013-10-03 01:19:00,
2013-10-02 20:24:00,71.3,60.6,29.76,South,175,6.0,7.0,69,0.00,,,0.00,Wunderground v.1.15,2013-10-03 01:24:00,
2013-10-02 20:29:00,71.3,60.6,29.76,South,169,7.0,7.0,69,0.00,,,0.00,Wunderground v.1.15,2013-10-03 01:29:00,
2013-10-02 20:34:00,71.4,60.7,29.77,South,184,5.0,8.0,69,0.00,,,0.00,Wunderground v.1.15,2013-10-03 01:34:00,
2013-10-02 20:39:00,71.5,60.8,29.77,South,190,5.0,9.0,69,0.00,,,0.00,Wunderground v.1.15,2013-10-03 01:39:00,
2013-10-02 20:44:00,71.7,60.6,29.77,SSW,198,6.0,9.0,68,0.00,,,0.00,Wunderground v.1.15,2013-10-03 01:44:00,
2013-10-02 20:50:00,71.8,60.7,29.78,South,190,5.0,7.0,68,0.00,,,0.00,Wunderground v.1.15,2013-10-03 01:50:00,
2013-10-02 20:55:00,71.5,60.4,29.77,SSW,200,4.0,7.0,68,0.00,,,0.00,Wunderground v.1.15,2013-10-03 01:55:00,
2013-10-02 21:00:00,71.0,60.3,29.77,South,188,4.0,5.0,69,0.00,,,0.00,Wunderground v.1.15,2013-10-03 02:00:00,
2013-10-02 21:05:00,70.3,60.1,29.78,South,182,3.0,5.0,70,0.00,,,0.00,Wunderground v.1.15,2013-10-03 02:05:00,
2013-10-02 21:10:00,69.7,59.9,29.77,South,182,4.0,6.0,71,0.00,,,0.00,Wunderground v.1.15,2013-10-03 02:10:00,
2013-10-02 21:15:00,69.8,60.0,29.77,South,183,4.0,7.0,71,0.00,,,0.00,Wunderground v.1.15,2013-10-03 02:15:00,
2013-10-02 21:20:00,69.7,59.9,29.77,SSW,199,4.0,5.0,71,0.00,,,0.00,Wunderground v.1.15,2013-10-03 02:20:00,
2013-10-02 21:25:00,69.4,60.0,29.77,South,182,5.0,6.0,72,0.00,,,0.00,Wunderground v.1.15,2013-10-03 02:25:00,
2013-10-02 21:30:00,69.2,59.8,29.77,SSW,197,3.0,5.0,72,0.00,,,0.00,Wunderground v.1.15,2013-10-03 02:30:00,
2013-10-02 21:35:00,69.2,60.2,29.76,SSW,205,4.0,6.0,73,0.00,,,0.00,Wunderground v.1.15,2013-10-03 02:35:00,
2013-10-02 21:40:00,69.1,60.5,29.76,SSW,192,5.0,6.0,74,0.00,,,0.00,Wunderground v.1.15,2013-10-03 02:40:00,
2013-10-02 21:45:00,68.9,60.3,29.76,South,188,5.0,6.0,74,0.00,,,0.00,Wunderground v.1.15,2013-10-03 02:45:00,
2013-10-02 21:50:00,68.6,60.4,29.77,South,190,4.0,6.0,75,0.00,,,0.00,Wunderground v.1.15,2013-10-03 02:50:00,
2013-10-02 21:55:00,68.2,60.7,29.76,SSW,192,4.0,6.0,77,0.00,,,0.00,Wunderground v.1.15,2013-10-03 02:55:00,
2013-10-02 22:00:00,67.8,60.3,29.76,SSW,200,3.0,5.0,77,0.00,,,0.00,Wunderground v.1.15,2013-10-03 03:00:00,
2013-10-02 22:05:00,67.3,60.2,29.76,South,186,3.0,5.0,78,0.00,,,0.00,Wunderground v.1.15,2013-10-03 03:05:00,
2013-10-02 22:10:00,66.8,60.1,29.76,South,171,2.0,4.0,79,0.00,,,0.00,Wunderground v.1.15,2013-10-03 03:10:00,
2013-10-02 22:15:00,66.6,60.2,29.76,South,171,2.0,4.0,80,0.00,,,0.00,Wunderground v.1.15,2013-10-03 03:15:00,
2013-10-02 22:20:00,66.6,60.2,29.76,South,180,2.0,4.0,80,0.00,,,0.00,Wunderground v.1.15,2013-10-03 03:20:00,
2013-10-02 22:25:00,66.8,60.4,29.77,SSW,206,3.0,4.0,80,0.00,,,0.00,Wunderground v.1.15,2013-10-03 03:25:00,
2013-10-02 22:30:00,66.7,60.3,29.77,SW,221,3.0,5.0,80,0.00,,,0.00,Wunderground v.1.15,2013-10-03 03:30:00,
2013-10-02 22:35:00,66.8,60.4,29.77,SSW,206,4.0,6.0,80,0.00,,,0.00,Wunderground v.1.15,2013-10-03 03:35:00,
2013-10-02 22:40:00,67.3,60.6,29.77,SSW,207,4.0,5.0,79,0.00,,,0.00,Wunderground v.1.15,2013-10-03 03:40:00,
2013-10-02 22:45:00,67.5,60.4,29.77,South,184,3.0,5.0,78,0.00,,,0.00,Wunderground v.1.15,2013-10-03 03:45:00,
2013-10-02 22:50:00,67.2,60.1,29.77,South,184,3.0,4.0,78,0.00,,,0.00,Wunderground v.1.15,2013-10-03 03:50:00,
2013-10-02 22:55:00,66.4,59.7,29.77,South,179,3.0,5.0,79,0.00,,,0.00,Wunderground v.1.15,2013-10-03 03:55:00,
2013-10-02 23:00:00,65.6,59.6,29.77,SSE,166,5.0,5.0,81,0.00,,,0.00,Wunderground v.1.15,2013-10-03 04:00:00,
2013-10-02 23:01:00,65.6,59.6,29.77,SSE,165,4.0,5.0,81,0.00,,,0.00,Wunderground v.1.15,2013-10-03 04:01:00,
2013-10-02 23:06:00,65.2,59.6,29.76,South,170,2.0,4.0,82,0.00,,,0.00,Wunderground v.1.15,2013-10-03 04:06:00,
2013-10-02 23:12:00,64.9,59.3,29.76,SSE,152,5.0,5.0,82,0.00,,,0.00,Wunderground v.1.15,2013-10-03 04:12:00,
2013-10-02 23:17:00,64.9,59.6,29.76,SSE,148,3.0,4.0,83,0.00,,,0.00,Wunderground v.1.15,2013-10-03 04:17:00,
2013-10-02 23:22:00,65.0,59.7,29.75,South,174,3.0,6.0,83,0.00,,,0.00,Wunderground v.1.15,2013-10-03 04:22:00,
2013-10-02 23:27:00,64.9,59.6,29.76,SSW,196,2.0,3.0,83,0.00,,,0.00,Wunderground v.1.15,2013-10-03 04:27:00,
2013-10-02 23:32:00,64.7,59.4,29.76,SSW,196,2.0,3.0,83,0.00,,,0.00,Wunderground v.1.15,2013-10-03 04:32:00,
2013-10-02 23:37:00,64.9,59.6,29.76,SSW,196,2.0,2.0,83,0.00,,,0.00,Wunderground v.1.15,2013-10-03 04:37:00,
2013-10-02 23:42:00,65.0,59.7,29.76,SSE,160,2.0,5.0,83,0.00,,,0.00,Wunderground v.1.15,2013-10-03 04:42:00,
2013-10-02 23:47:00,64.9,59.6,29.77,South,183,2.0,3.0,83,0.00,,,0.00,Wunderground v.1.15,2013-10-03 04:47:00,
2013-10-02 23:52:00,64.7,59.8,29.77,WSW,237,3.0,4.0,84,0.00,,,0.00,Wunderground v.1.15,2013-10-03 04:52:00,
2013-10-02 23:57:00,64.6,59.3,29.78,West,261,3.0,3.0,83,0.00,,,0.00,Wunderground v.1.15,2013-10-03 04:57:00,